EW3857 Weather Reports


Display with metric or nautical units.
time (UTC)temp
F
wind
direction
speed
MPH
gust
MPH
rain 1hr
in
rain 24hr
in
rain mn
in
humidity
%
barometer
mb
20260905185429 94 251 3.0 3.0 0.00 0.00 0.00 63 1015.0
20260905184928 93 255 3.0 3.0 0.00 0.00 0.00 61 1015.2
20260905184423 93 251 4.0 5.0 0.00 0.00 0.00 62 1015.2
20260905183922 94 253 4.0 5.0 0.00 0.00 0.00 65 1015.1
20260905183416 93 253 3.0 5.0 0.00 0.00 0.00 63 1015.4
20260905182912 93 255 3.0 3.0 0.00 0.00 0.00 65 1015.5
20260905182410 93 249 5.0 5.0 0.00 0.00 0.00 65 1015.4
20260905181907 94 250 4.0 5.0 0.00 0.00 0.00 64 1015.3
20260905181407 93 254 3.0 3.0 0.00 0.00 0.00 66 1015.6
20260905180905 93 252 4.0 5.0 0.00 0.00 0.00 66 1015.8
20260905180401 93 251 4.0 5.0 0.00 0.00 0.00 66 1015.8
20260905175855 93 256 3.0 3.0 0.00 0.00 0.00 63 1015.8
20260905175354 93 256 2.0 2.0 0.00 0.00 0.00 66 1016.0
20260905174850 93 252 3.0 3.0 0.00 0.00 0.00 68 1016.0
20260905174346 93 260 1.0 1.0 0.00 0.00 0.00 69 1015.9
20260905173842 93 262 1.0 2.0 0.00 0.00 0.00 67 1016.1
20260905173337 93 269 1.0 1.0 0.00 0.00 0.00 66 1016.1
20260905172832 93 264 1.0 1.0 0.00 0.00 0.00 66 1016.1
20260905172330 92 270 0.0 0.0 0.00 0.00 0.00 72 1016.2
20260905171827 92 262 1.0 1.0 0.00 0.00 0.00 70 1016.3
20260905171323 92 262 2.0 3.0 0.00 0.00 0.00 72 1016.2
20260905170819 91 258 2.0 2.0 0.00 0.00 0.00 72 1016.4
20260905170315 91 262 2.0 2.0 0.00 0.00 0.00 73 1016.2
20260905165814 91 255 3.0 3.0 0.00 0.00 0.00 76 1016.3
20260905165309 91 263 2.0 2.0 0.00 0.00 0.00 76 1016.4
20260905164804 91 261 1.0 2.0 0.00 0.00 0.00 77 1016.4
20260905164304 90 257 2.0 2.0 0.00 0.00 0.00 79 1016.4
20260905163754 90 255 1.0 2.0 0.00 0.00 0.00 78 1016.8
20260905163250 89 265 1.0 1.0 0.00 0.00 0.00 79 1016.7
20260905162746 89 264 1.0 1.0 0.00 0.00 0.00 81 1016.7
20260905162245 89 268 1.0 1.0 0.00 0.00 0.00 80 1016.6
20260905161740 89 263 1.0 2.0 0.00 0.00 0.00 82 1016.8
20260905161238 89 344 0.0 0.0 0.00 0.00 0.00 81 1016.8
20260905160732 89 268 1.0 1.0 0.00 0.00 0.00 81 1016.8
20260905160231 89 265 1.0 1.0 0.00 0.00 0.00 81 1017.1
20260905155726 89 260 2.0 2.0 0.00 0.00 0.00 81 1017.0
20260905155225 89 256 2.0 2.0 0.00 0.00 0.00 81 1017.1
20260905154719 88 265 1.0 1.0 0.00 0.00 0.00 82 1017.1
20260905154215 87 268 1.0 1.0 0.00 0.00 0.00 84 1017.1
20260905153711 87 262 2.0 2.0 0.00 0.00 0.00 83 1017.2
20260905153206 86 264 1.0 1.0 0.00 0.00 0.00 84 1017.1
20260905152701 85 257 2.0 2.0 0.00 0.00 0.00 87 1017.3
20260905152155 85 266 1.0 1.0 0.00 0.00 0.00 88 1017.3
20260905151650 85 266 0.0 1.0 0.00 0.00 0.00 89 1017.2
20260905151146 84 252 1.0 1.0 0.00 0.00 0.00 89 1017.2
20260905150641 84 269 1.0 1.0 0.00 0.00 0.00 90 1017.1
20260905150139 84 271 0.0 1.0 0.00 0.00 0.00 90 1017.2
20260905145637 84 277 0.0 1.0 0.00 0.00 0.00 90 1017.1
20260905145137 84 270 0.0 0.0 0.00 0.00 0.00 90 1017.2
20260905144626 84 259 1.0 1.0 0.00 0.00 0.00 91 1017.3
20260905144125 83 267 0.0 1.0 0.00 0.00 0.00 91 1017.3
20260905143620 83 261 2.0 2.0 0.00 0.00 0.00 92 1017.0
20260905143115 83 259 1.0 2.0 0.00 0.00 0.00 90 1017.2
20260905142614 83 264 1.0 1.0 0.00 0.00 0.00 90 1017.2
20260905142113 83 266 0.0 0.0 0.00 0.00 0.00 90 1017.5
20260905141613 83 268 1.0 1.0 0.00 0.00 0.00 89 1017.2
20260905141110 83 271 0.0 1.0 0.00 0.00 0.00 89 1017.6
20260905140604 82 266 1.0 1.0 0.00 0.00 0.00 89 1017.3
20260905140103 82 266 1.0 1.0 0.00 0.00 0.00 90 1017.3
20260905135559 82 256 2.0 3.0 0.00 0.00 0.00 89 1017.3
20260905135054 82 261 1.0 2.0 0.00 0.00 0.00 89 1017.4
20260905134549 82 262 1.0 1.0 0.00 0.00 0.00 90 1017.5
20260905134047 81 264 1.0 1.0 0.00 0.00 0.00 91 1017.8
20260905133543 81 278 0.0 1.0 0.00 0.00 0.00 92 1017.7
20260905133042 81 266 1.0 1.0 0.00 0.00 0.00 94 1017.7
20260905132543 81 261 2.0 2.0 0.00 0.00 0.00 94 1017.9
20260905132037 81 264 1.0 1.0 0.00 0.00 0.00 94 1017.7
20260905131533 80 266 1.0 1.0 0.00 0.00 0.00 94 1017.7
20260905131028 80 266 0.0 0.0 0.00 0.00 0.00 95 1018.0
20260905130527 80 262 2.0 2.0 0.00 0.00 0.00 95 1017.8
20260905130023 80 278 0.0 1.0 0.00 0.00 0.00 96 1017.7
20260905125522 80 264 2.0 2.0 0.00 0.00 0.00 97 1017.5
20260905125018 79 270 0.0 0.0 0.00 0.00 0.00 98 1017.6
20260905124514 79 270 0.0 0.0 0.00 0.00 0.00 98 1017.7
20260905124010 78 270 0.0 0.0 0.00 0.00 0.00 99 1017.8
20260905123505 78 270 0.0 0.0 0.00 0.00 0.00 99 1017.8
20260905123001 77 270 0.0 0.0 0.00 0.00 0.00 99 1017.8
20260905122501 77 270 0.0 0.0 0.00 0.00 0.00 99 1017.6
20260905121955 76 270 0.0 1.0 0.00 0.00 0.00 99 1017.8
20260905121451 76 270 0.0 0.0 0.00 0.00 0.00 99 1017.7
20260905120950 76 270 0.0 0.0 0.00 0.00 0.00 99 1017.4
20260905120445 76 270 0.0 0.0 0.00 0.00 0.00 99 1017.6
20260905115940 76 270 0.0 0.0 0.00 0.00 0.00 99 1017.6
20260905115439 76 269 0.0 0.0 0.00 0.00 0.00 99 1017.4
20260905114934 76 269 0.0 0.0 0.00 0.00 0.00 99 1017.4
20260905114428 75 269 0.0 0.0 0.00 0.00 0.00 99 1017.2
20260905113928 75 268 0.0 0.0 0.00 0.00 0.00 99 1017.4
20260905113423 75 269 0.0 0.0 0.00 0.00 0.00 99 1017.3
20260905112918 75 269 0.0 0.0 0.00 0.00 0.00 99 1017.0
20260905112414 75 269 0.0 0.0 0.00 0.00 0.00 99 1017.1
20260905111908 75 270 0.0 0.0 0.00 0.00 0.00 99 1017.2
20260905111408 75 269 0.0 0.0 0.00 0.00 0.00 99 1017.1
20260905110902 75 269 0.0 0.0 0.00 0.00 0.00 99 1016.7
20260905110356 75 269 0.0 0.0 0.00 0.00 0.00 99 1016.9
20260905105852 75 271 0.0 0.0 0.00 0.00 0.00 99 1016.8
20260905105350 75 269 0.0 0.0 0.00 0.00 0.00 99 1016.7
20260905104845 76 269 1.0 1.0 0.00 0.00 0.00 99 1016.7
20260905104342 75 270 0.0 0.0 0.00 0.00 0.00 99 1016.5
20260905103841 75 270 0.0 0.0 0.00 0.00 0.00 99 1016.6
20260905103337 75 269 1.0 1.0 0.00 0.00 0.00 99 1016.4
20260905102832 76 271 0.0 0.0 0.00 0.00 0.00 99 1016.3
20260905102329 76 271 0.0 0.0 0.00 0.00 0.00 99 1016.2
20260905101829 76 271 0.0 0.0 0.00 0.00 0.00 99 1016.4
20260905101327 75 270 1.0 1.0 0.00 0.00 0.00 99 1016.3
20260905100821 75 271 0.0 0.0 0.00 0.00 0.00 99 1016.0
20260905100317 75 271 0.0 0.0 0.00 0.00 0.00 99 1016.3
20260905095816 75 271 0.0 0.0 0.00 0.00 0.00 99 1016.3
20260905095311 75 271 0.0 0.0 0.00 0.00 0.00 99 1016.2
20260905094805 75 271 0.0 0.0 0.00 0.00 0.00 99 1016.3
20260905094301 75 271 0.0 0.0 0.00 0.00 0.00 99 1016.4
20260905093754 75 271 0.0 0.0 0.00 0.00 0.00 99 1016.5
20260905093250 75 271 0.0 0.0 0.00 0.00 0.00 99 1016.5
20260905092745 75 271 0.0 0.0 0.00 0.00 0.00 99 1016.2
20260905092240 75 271 0.0 0.0 0.00 0.00 0.00 99 1016.2
20260905091735 75 271 0.0 0.0 0.00 0.00 0.00 99 1016.2
20260905091230 76 271 0.0 0.0 0.00 0.00 0.00 99 1016.1
20260905090729 76 271 1.0 1.0 0.00 0.00 0.00 99 1016.1
20260905090225 76 271 0.0 0.0 0.00 0.00 0.00 99 1016.2
20260905085724 76 271 1.0 1.0 0.00 0.00 0.00 99 1016.1
20260905085218 76 271 1.0 1.0 0.00 0.00 0.00 99 1016.0
20260905084713 76 271 0.0 1.0 0.00 0.00 0.00 99 1015.8
20260905084212 76 271 0.0 0.0 0.00 0.00 0.00 99 1015.9
20260905083708 76 271 0.0 0.0 0.00 0.00 0.00 99 1016.0
20260905083204 76 271 0.0 0.0 0.00 0.00 0.00 99 1016.2
20260905082659 76 271 0.0 0.0 0.00 0.00 0.00 99 1015.9
20260905082154 76 271 0.0 0.0 0.00 0.00 0.00 98 1016.1
20260905081649 76 271 0.0 0.0 0.00 0.00 0.00 98 1015.7
20260905081144 76 271 0.0 1.0 0.00 0.00 0.00 98 1016.2
20260905080643 76 271 0.0 0.0 0.00 0.00 0.00 98 1016.0
20260905080143 76 271 0.0 0.0 0.00 0.00 0.00 98 1015.9
20260905075642 76 271 0.0 0.0 0.00 0.00 0.00 98 1015.9
20260905075141 77 271 0.0 1.0 0.00 0.00 0.00 98 1016.1
20260905074640 77 271 0.0 1.0 0.00 0.00 0.00 98 1016.0
20260905074137 77 271 1.0 1.0 0.00 0.00 0.00 98 1015.9
20260905073632 77 271 1.0 1.0 0.00 0.00 0.00 98 1016.1
20260905073128 77 271 0.0 0.0 0.00 0.00 0.00 98 1016.1
20260905072627 77 271 0.0 0.0 0.00 0.00 0.00 98 1016.0
20260905072123 77 271 0.0 0.0 0.00 0.00 0.00 98 1015.9
20260905071619 77 271 0.0 0.0 0.00 0.00 0.00 98 1015.8
20260905071115 77 271 0.0 0.0 0.00 0.00 0.00 97 1015.8
20260905070610 77 271 0.0 0.0 0.00 0.00 0.00 97 1015.7
20260905070106 77 271 0.0 0.0 0.00 0.00 0.00 97 1015.6
20260905065603 77 271 0.0 0.0 0.00 0.00 0.00 97 1015.8
20260905065058 77 271 0.0 0.0 0.00 0.00 0.00 97 1015.7
20260905064553 77 271 1.0 1.0 0.00 0.00 0.00 97 1015.8
20260905064048 77 271 1.0 1.0 0.00 0.00 0.00 97 1015.8
20260905063547 77 271 0.0 0.0 0.00 0.00 0.00 97 1016.0
20260905063043 77 271 1.0 1.0 0.00 0.00 0.00 97 1016.0
20260905062538 77 272 1.0 1.0 0.00 0.00 0.00 96 1016.0
20260905062032 77 271 0.0 0.0 0.00 0.00 0.00 96 1015.8
20260905061528 77 271 0.0 0.0 0.00 0.00 0.00 96 1016.2
20260905061027 77 271 0.0 1.0 0.00 0.00 0.00 96 1016.3
20260905060523 77 272 1.0 2.0 0.00 0.00 0.00 96 1016.1
20260905060019 77 271 0.0 1.0 0.00 0.00 0.00 96 1016.1
20260905055517 77 272 1.0 1.0 0.00 0.00 0.00 96 1016.3
20260905055012 77 272 0.0 1.0 0.00 0.00 0.00 96 1016.5
20260905054508 77 271 0.0 0.0 0.00 0.00 0.00 96 1016.4
20260905054004 77 272 0.0 0.0 0.00 0.00 0.00 95 1016.4
20260905053458 77 272 0.0 0.0 0.00 0.00 0.00 96 1016.3
20260905052954 77 272 0.0 0.0 0.00 0.00 0.00 95 1016.3
20260905052453 77 272 0.0 0.0 0.00 0.00 0.00 95 1016.3
20260905051953 78 272 0.0 0.0 0.00 0.00 0.00 95 1016.3
20260905051448 77 272 1.0 2.0 0.00 0.00 0.00 95 1016.4
20260905050946 78 272 0.0 0.0 0.00 0.00 0.00 95 1016.4
20260905050440 78 272 0.0 0.0 0.00 0.00 0.00 95 1016.4
20260905045937 78 272 1.0 1.0 0.00 0.00 0.00 95 1016.4
20260905045431 78 272 1.0 1.0 0.00 0.00 0.00 95 1016.4
20260905044926 78 273 0.0 1.0 0.00 0.00 0.00 94 1016.4
20260905044416 78 272 1.0 1.0 0.00 0.00 0.00 94 1016.3
20260905043915 78 270 0.0 0.0 0.00 0.00 0.00 94 1016.3
20260905043410 78 270 0.0 0.0 0.00 0.00 0.00 94 1016.4
20260905042910 78 271 0.0 0.0 0.00 0.00 0.00 94 1016.5
20260905042404 78 270 1.0 1.0 0.00 0.00 0.00 94 1016.6
20260905041859 78 270 0.0 0.0 0.00 0.00 0.00 94 1016.5
20260905041355 78 270 0.0 0.0 0.00 0.00 0.00 94 1016.4
20260905040850 78 270 0.0 1.0 0.00 0.00 0.00 94 1016.6
20260905040349 78 269 0.0 0.0 0.00 0.00 0.00 94 1016.7
20260905035848 78 269 0.0 0.0 0.00 0.00 0.00 93 1016.4
20260905035344 79 270 0.0 1.0 0.00 0.00 0.00 93 1016.7
20260905034840 79 270 0.0 0.0 0.00 0.00 0.00 93 1016.5
20260905034336 79 270 0.0 1.0 0.00 0.00 0.00 93 1017.0
20260905033834 79 271 0.0 0.0 0.00 0.00 0.00 93 1016.7
20260905033330 79 271 0.0 1.0 0.00 0.00 0.00 92 1016.8
20260905032829 79 273 1.0 1.0 0.00 0.00 0.00 92 1016.8
20260905032325 79 273 0.0 0.0 0.00 0.00 0.00 92 1016.6
20260905031820 79 273 0.0 0.0 0.00 0.00 0.00 92 1016.9
20260905031316 79 273 0.0 0.0 0.00 0.00 0.00 91 1017.0
20260905030810 79 273 0.0 0.0 0.00 0.00 0.00 91 1017.0
20260905030306 79 272 0.0 0.0 0.00 0.00 0.00 91 1016.9
20260905025805 79 271 0.0 0.0 0.00 0.00 0.00 91 1017.0
20260905025301 80 272 0.0 1.0 0.00 0.00 0.00 91 1017.2
20260905024756 80 271 1.0 1.0 0.00 0.00 0.00 90 1017.1
20260905024252 80 272 1.0 1.0 0.00 0.00 0.00 90 1017.2
20260905023747 80 272 0.0 0.0 0.00 0.00 0.00 89 1017.3
20260905023242 80 272 1.0 1.0 0.00 0.00 0.00 89 1017.3
20260905022741 80 271 0.0 0.0 0.00 0.00 0.00 89 1017.0
20260905022237 81 271 0.0 1.0 0.00 0.00 0.00 89 1017.3
20260905021731 81 271 0.0 0.0 0.00 0.00 0.00 87 1017.4
20260905021226 82 273 1.0 1.0 0.00 0.00 0.00 86 1017.2
20260905020720 82 273 1.0 1.0 0.00 0.00 0.00 85 1017.3
20260905020216 81 272 0.0 0.0 0.00 0.00 0.00 86 1017.2
20260905015714 82 272 1.0 1.0 0.00 0.00 0.00 86 1017.0
20260905015209 82 271 1.0 1.0 0.00 0.00 0.00 86 1017.2
20260905014707 82 270 1.0 1.0 0.00 0.00 0.00 85 1017.0
20260905014203 82 271 1.0 1.0 0.00 0.00 0.00 84 1017.0
20260905013659 83 272 0.0 0.0 0.00 0.00 0.00 83 1016.9
20260905013154 83 272 0.0 0.0 0.00 0.00 0.00 82 1017.0
20260905012650 83 271 0.0 0.0 0.00 0.00 0.00 82 1016.9
20260905012146 83 272 0.0 0.0 0.00 0.00 0.00 82 1016.8
20260905011642 82 275 0.0 1.0 0.00 0.00 0.00 83 1016.8
20260905011138 82 272 0.0 0.0 0.00 0.00 0.00 85 1016.8
20260905010632 82 272 1.0 1.0 0.00 0.00 0.00 86 1016.7
20260905010128 82 271 0.0 1.0 0.00 0.00 0.00 83 1016.9
20260905005624 82 274 0.0 0.0 0.00 0.00 0.00 86 1016.8
20260905005120 83 273 0.0 0.0 0.00 0.00 0.00 84 1016.8
20260905004619 83 272 0.0 0.0 0.00 0.00 0.00 84 1016.6
20260905004114 83 271 0.0 1.0 0.00 0.00 0.00 82 1016.5
20260905003610 83 271 0.0 1.0 0.00 0.00 0.00 83 1016.4
20260905003106 83 270 0.0 0.0 0.00 0.00 0.00 85 1016.4
20260905002601 84 269 0.0 0.0 0.00 0.00 0.00 83 1016.3
20260905002055 84 270 0.0 1.0 0.00 0.00 0.00 82 1016.5
20260905001550 84 271 0.0 1.0 0.00 0.00 0.00 83 1016.5
20260905001044 85 270 0.0 1.0 0.00 0.00 0.00 82 1016.3
20260905000540 85 272 0.0 1.0 0.00 0.00 0.00 80 1016.3
20260905000036 86 271 0.0 0.0 0.00 0.00 0.00 79 1016.3
20260904235531 86 271 0.0 1.0 0.00 0.00 0.00 78 1016.2
20260904235031 86 269 0.0 0.0 0.00 0.00 0.00 80 1016.3
20260904234530 86 272 1.0 1.0 0.00 0.00 0.00 81 1016.4
20260904234027 87 271 1.0 2.0 0.00 0.00 0.00 81 1016.4
20260904233521 88 270 1.0 1.0 0.00 0.00 0.00 79 1016.5
20260904233018 88 271 1.0 1.0 0.00 0.00 0.00 78 1016.6
20260904232514 89 270 2.0 2.0 0.00 0.00 0.00 76 1016.5
20260904232010 90 268 1.0 1.0 0.00 0.00 0.00 74 1016.3
20260904231506 91 269 1.0 1.0 0.00 0.00 0.00 74 1016.3
20260904231000 92 269 0.0 0.0 0.00 0.00 0.00 74 1016.4
20260904230459 92 268 0.0 0.0 0.00 0.00 0.00 73 1016.4
20260904225954 93 270 0.0 1.0 0.00 0.00 0.00 66 1016.1
20260904225452 93 267 0.0 0.0 0.00 0.00 0.00 63 1016.0
20260904224946 93 266 0.0 0.0 0.00 0.00 0.00 61 1015.9
20260904224443 93 270 0.0 1.0 0.00 0.00 0.00 59 1016.0
20260904223942 93 268 0.0 0.0 0.00 0.00 0.00 57 1016.1
20260904223441 93 266 0.0 0.0 0.00 0.00 0.00 60 1016.1
20260904222937 93 276 1.0 1.0 0.00 0.00 0.00 59 1015.7
20260904222433 93 264 0.0 0.0 0.00 0.00 0.00 60 1016.1
20260904221932 93 264 0.0 0.0 0.00 0.00 0.00 62 1015.8
20260904221427 94 264 0.0 0.0 0.00 0.00 0.00 58 1015.9
20260904220923 94 264 0.0 0.0 0.00 0.00 0.00 56 1015.9
20260904220421 94 264 0.0 0.0 0.00 0.00 0.00 57 1015.9
20260904215917 94 262 0.0 0.0 0.00 0.00 0.00 55 1016.0
20260904215412 94 264 0.0 0.0 0.00 0.00 0.00 55 1016.2
20260904214908 94 264 0.0 0.0 0.00 0.00 0.00 56 1015.8
20260904214404 94 264 0.0 0.0 0.00 0.00 0.00 55 1015.8
20260904213902 94 261 1.0 2.0 0.00 0.00 0.00 55 1015.8
20260904213357 94 265 0.0 0.0 0.00 0.00 0.00 55 1015.9
20260904212853 94 265 0.0 0.0 0.00 0.00 0.00 54 1016.0
20260904212352 94 263 1.0 1.0 0.00 0.00 0.00 53 1016.1
20260904211848 94 264 0.0 0.0 0.00 0.00 0.00 55 1016.0
20260904211344 95 264 1.0 2.0 0.00 0.00 0.00 56 1015.9
20260904210838 95 262 0.0 1.0 0.00 0.00 0.00 54 1016.0
20260904210332 95 262 1.0 1.0 0.00 0.00 0.00 53 1016.0
20260904205828 97 264 0.0 0.0 0.00 0.00 0.00 52 1016.0
20260904205324 96 263 0.0 0.0 0.00 0.00 0.00 51 1016.2
20260904204821 96 263 0.0 1.0 0.00 0.00 0.00 53 1016.3
20260904204316 96 263 0.0 0.0 0.00 0.00 0.00 53 1016.3
20260904203812 97 263 0.0 0.0 0.00 0.00 0.00 52 1016.3
20260904203308 96 261 1.0 1.0 0.00 0.00 0.00 51 1016.5
20260904202804 95 262 0.0 0.0 0.00 0.00 0.00 53 1016.3
20260904202300 95 264 0.0 0.0 0.00 0.00 0.00 55 1016.5
20260904201756 96 260 1.0 2.0 0.00 0.00 0.00 51 1016.6
20260904201255 95 261 1.0 1.0 0.00 0.00 0.00 52 1016.8
20260904200750 95 262 0.0 0.0 0.00 0.00 0.00 55 1016.8
20260904200244 95 262 0.0 0.0 0.00 0.00 0.00 55 1016.9
20260904195743 94 263 0.0 0.0 0.00 0.00 0.00 54 1016.8
20260904195242 94 261 1.0 1.0 0.00 0.00 0.00 54 1017.0
20260904194737 94 257 3.0 3.0 0.00 0.00 0.00 54 1017.3
20260904194236 95 264 0.0 0.0 0.00 0.00 0.00 57 1017.3
20260904193732 96 261 0.0 1.0 0.00 0.00 0.00 54 1017.3
20260904193227 95 262 0.0 1.0 0.00 0.00 0.00 58 1017.2
20260904192723 94 262 1.0 1.0 0.00 0.00 0.00 58 1017.5
20260904192218 95 262 1.0 1.0 0.00 0.00 0.00 57 1017.3
20260904191715 95 263 0.0 0.0 0.00 0.00 0.00 58 1017.5
20260904191211 94 264 0.0 0.0 0.00 0.00 0.00 58 1017.7
20260904190707 93 261 1.0 1.0 0.00 0.00 0.00 58 1017.9
20260904190203 93 261 1.0 1.0 0.00 0.00 0.00 59 1017.7